Home   Weather   22°14'N, 114°12'E   Past weeks
Flag for Hong Kong

Past Weather in 22°14'N, 114°12'E, Hong Kong — Yesterday and Last 2 Weeks

Now
82 °F

Passing clouds.


Feels Like: 83 °F
Forecast: 82 / 75 °F
Wind: 6 mph from North

Location: National Airport

Current Time: Oct 19, 2019 at 12:52:18 pm

Latest Report: Oct 19, 2019 at 12:00 pm


Visibility: N/A

Pressure: 30.07 "Hg

Humidity: 48%

Dew Point: 61 °F

Location of 22°14'N, 114°12'ELocation

Past Weather in 22°14'N, 114°12'E — Graph

°F

22°14'N, 114°12'E Temperature Yesterday

Maximum temperature yesterday: 84 °F (at 1:30 pm)
Minimum temperature yesterday: 77 °F (at 4:30 am)
Average temperature yesterday: 80 °F

High & Low Weather Summary for the Past Weeks

 TemperatureHumidityPressure
High91 °F (Oct 5, 2:30 pm)100% (Oct 7, 4:00 am)30.12 "Hg (Oct 7, 4:00 am)
Low75 °F (Oct 6, 2:37 pm)32% (Oct 5, 4:00 pm)29.80 "Hg (Oct 11, 3:30 pm)
Average82 °F68%29.97 "Hg
* Reported Oct 4 11:00 am — Oct 19 11:30 am, 22°14'N, 114°12'E. Weather by CustomWeather, © 2019

Note: Actual official high and low records may vary slightly from our data, if they occured in-between our weather recording intervals... More about our weather records

Advertising

22°14'N, 114°12'E Weather History for the Previous 24 Hours

Scroll right to see more
 ConditionsComfort  
Time TempWeatherWind HumidityBarometerVisibility
11:30 am
Sat, Oct 19
82 °FPassing clouds.8 mph48%30.07 "HgN/A
11:00 am82 °FPassing clouds.5 mph48%30.07 "HgN/A
10:30 am81 °FPassing clouds.5 mph51%30.09 "HgN/A
10:00 am79 °FPassing clouds.5 mph54%30.09 "HgN/A
9:30 am81 °FPassing clouds.5 mph51%30.09 "HgN/A
9:00 am79 °FPassing clouds.8 mph54%30.09 "HgN/A
8:30 am79 °FSunny.9 mph58%30.09 "Hg10 mi
8:00 am79 °FSunny.10 mph58%30.09 "Hg10 mi
7:30 am77 °FPassing clouds.9 mph57%30.07 "HgN/A
7:00 am75 °FPassing clouds.10 mph74%30.07 "HgN/A
6:30 am75 °FPassing clouds.12 mph65%30.04 "HgN/A
6:00 am77 °FPassing clouds.10 mph65%30.04 "HgN/A
5:30 am77 °FClear.12 mph69%30.04 "Hg10 mi
5:00 am77 °FClear.9 mph69%30.04 "Hg10 mi
4:30 am77 °FClear.8 mph74%30.01 "Hg10 mi
4:00 am75 °FPassing clouds.5 mph78%30.01 "HgN/A
3:30 am75 °FPassing clouds.6 mph78%30.01 "HgN/A
3:00 am77 °FPassing clouds.6 mph69%30.01 "HgN/A
2:30 am77 °FPassing clouds.5 mph65%30.01 "HgN/A
2:00 am77 °FPassing clouds.6 mph65%30.01 "HgN/A
1:30 am77 °FPassing clouds.6 mph65%30.01 "HgN/A
1:00 am79 °FPassing clouds.5 mph65%30.04 "HgN/A
12:30 am79 °FPassing clouds.3 mph61%30.04 "HgN/A
12:00 am79 °FPassing clouds.3 mph61%30.04 "HgN/A
11:30 pm
Fri, Oct 18
79 °FPassing clouds.3 mph61%30.04 "HgN/A
11:00 pm79 °FPassing clouds.3 mph61%30.04 "HgN/A
10:30 pm77 °FClear.3 mph65%30.04 "Hg10 mi
10:00 pm79 °FPassing clouds.6 mph61%30.04 "HgN/A
9:30 pm79 °FPassing clouds.6 mph61%30.04 "HgN/A
9:00 pm79 °FPassing clouds.5 mph65%30.04 "HgN/A
8:30 pm81 °FPassing clouds.6 mph58%30.04 "HgN/A
8:00 pm79 °FClear.3 mph61%30.01 "Hg10 mi
7:30 pm81 °FPassing clouds.6 mph54%30.01 "HgN/A
7:00 pm82 °FClear.6 mph55%30.01 "Hg10 mi
6:30 pm82 °FClear.9 mph55%29.98 "Hg10 mi
6:00 pm82 °FClear.10 mph51%29.98 "Hg10 mi
5:30 pm82 °FSunny.12 mph51%29.98 "Hg10 mi
5:00 pm82 °FSunny.12 mph51%29.98 "Hg10 mi
4:30 pm84 °FPassing clouds.12 mph48%29.98 "HgN/A
4:00 pm84 °FPassing clouds.12 mph48%29.98 "HgN/A
3:30 pm84 °FPassing clouds.12 mph48%29.98 "HgN/A
3:00 pm84 °FPassing clouds.12 mph48%29.98 "HgN/A
2:30 pm84 °FPassing clouds.9 mph45%29.98 "HgN/A
2:00 pm84 °FPassing clouds.9 mph48%30.01 "HgN/A
1:30 pm84 °FPassing clouds.9 mph45%30.01 "HgN/A
1:00 pm82 °FPassing clouds.12 mph48%30.04 "HgN/A
12:30 pm82 °FPassing clouds.13 mph51%30.04 "HgN/A
12:00 pm82 °FPassing clouds.10 mph48%30.04 "HgN/A
Weather by CustomWeather, © 2019

See weather overview